Starlink 30587

operational
NORAD ID: 58064 Int'l Des: 2023-158 Owner: SPXS Country: US Constellation: starlink
LEOCIRCULAR

About Starlink 30587

Description loading...

Live Position

Loading 3D Globe...

Upcoming Passes

Altitude History

Altitude vs Time

uPlot chart will show altitude changes over time

Two-Line Element Set

1 58064U 23158P 25308.51620849 -.00000122 00000-0 60639-5 0 9990
2 58064 43.0041 350.3496 0001352 270.2180 89.8508 15.02536525114703
Epoch: Nov 4, 2025 • Age: 7 hours

Current Status

Altitude 562.7 km
Velocity 7.59 km/s
Sub-Earth Point 41.18°N, 86.93°E
Launch Date Oct 13, 2023
Age 2 years
Type internet

Technical Details

Classification Payload
Mass 730.00 kg
Dry Mass 700.00 kg
Total Mass 730.00 kg
Length 0.30 m
Diameter 4.10 m
Span 29.00 m
Shape Box + pan
Manufacturer SPXS
Bus Type Starlink V2M
Phase Status In Orbit
Owner/State SPXS/US

Large Constellations

Loading constellations...